Regional Weather Roundup
Issued by NWS Columbia, SC

Home | Current Version | Previous Version | Text Only | Print | Product List | Glossary On
Versions: 1 2 3 4 5 6 7 8 9 10 11 12 13 14 15 16 17 18 19 20 21 22 23 24 25 26 27 28 29 30 31 32 33 34 35 36 37 38 39 40 41 42 43 44 45 46 47 48 49 50
000
ASUS42 KCAE 021010
RWRCAE
REGIONAL WEATHER ROUNDUP
NATIONAL WEATHER SERVICE COLUMBIA SC
600 AM EDT SUN AUG 02 2015

NOTE: "FAIR" INDICATES FEW OR NO CLOUDS BELOW 12,000 FEET WITH NO
SIGNIFICANT WEATHER AND/OR OBSTRUCTIONS TO VISIBILITY.

NOT ALL STATIONS ARE QUALITY CONTROLLED BY THE NATIONAL
WEATHER SERVICE. USE DATA WITH CAUTION...ESPECIALLY
DEWPOINT OBSERVATIONS.

SCZ001>056-GAZ040-063>065-077-021100-
...UPSTATE SOUTH CAROLINA...

CITY           SKY/WX    TMP DP  RH WIND       PRES   REMARKS
ANDERSON       CLEAR     65  61  87 CALM      29.95R
SPARTANBURG      N/A     68  61  77 CALM      29.96R
CLEMSON        CLEAR     69  63  81 CALM      29.97R
GREENVILLE     CLEAR     71  57  61 N9        29.97R
GREENWOOD      PTCLDY    65  63  93 N5        29.94S
GREER          CLEAR     72  58  61 NE6       29.95R
ROCK HILL      CLEAR     66  63  90 N6        29.96R
CHESTER        SUNNY     70  61  73 N6        29.95R
LAURENS        SUNNY     64  63  94 NE3       29.94R


...CENTRAL SOUTH CAROLINA...

CITY           SKY/WX    TMP DP  RH WIND       PRES   REMARKS
COLUMBIA APT   MOCLDY    75  70  84 CALM      29.91S
COLUMBIA OWENS CLEAR     74  71  91 CALM      29.92S
DARLINGTON     CLEAR     72  66  83 CALM      29.94R
FLORENCE       CLEAR     74  72  93 CALM      29.91S
MCENTIRE ANGB  CLOUDY    75  73  94 CALM      29.92S
ORANGEBURG     FOG       75  74  96 CALM      29.92R VSB 1/2
SUMTER SHAW    MOCLDY    73  71  93 E2        29.90S
NEWBERRY       SUNNY     66  64  94 CALM      29.95S
AIKEN          LGT RAIN  70  68  94 NE3       29.95S VSB 1/4
BARNWELL       FOG       75  75 100 CALM      29.92R VSB 1
MANNING        RAIN      70  70 100 CALM      29.92R
CAMDEN         FAIR      72  70  94 CALM      29.93R
LANCASTER      SUNNY     66  66 100 CALM      29.94R
WINNSBORO      SUNNY     70  68  94 CALM      29.93R


...EASTERN AND COASTAL SOUTH CAROLINA...

CITY           SKY/WX    TMP DP  RH WIND       PRES   REMARKS
MYRTLE BEACH   CLOUDY    75  72  88 CALM      29.93S
N MYRTLE BCH   PTCLDY    74  72  93 CALM      29.91S
CONWAY         FAIR      72  72 100 CALM      29.92R FOG
MARION         FAIR      72  70  94 CALM      29.92S
HARTSVILLE     FAIR      70  68  94 CALM      29.92R
FLORENCE       CLEAR     74  72  93 CALM      29.91S
DARLINGTON     CLEAR     72  66  83 CALM      29.94R
CHARLESTON APT PTCLDY    76  74  93 CALM      29.90S
MOUNT PLEASANT LGT RAIN  73  73 100 CALM      29.90F
WALTERBORO     FOG       73  72  94 CALM      29.91S VSB 1/2
BEAUFORT       CLEAR     75  73  93 W6        29.90R


...EASTERN GEORGIA...

CITY           SKY/WX    TMP DP  RH WIND       PRES   REMARKS
AUGUSTA BUSH F CLOUDY    73  72  96 CALM      29.90R
AUGUSTA DANIEL CLOUDY    76  71  85 E3        29.92R
THOMSON        CLEAR     73  73 100 CALM      29.95S
WASHINGTON     FAIR      70  70 100 CALM      29.92R
SYLVANIA       FOG       76  76 100 CALM      29.91R VSB 1/2
STATESBORO     CLOUDY    74  32  21 S3        29.90S HAZE
SAVANNAH       MOCLDY    76  73  91 SW3       29.90R


...SOUTHERN NORTH CAROLINA...

CITY           SKY/WX    TMP DP  RH WIND       PRES   REMARKS
CHARLOTTE      PTCLDY    68  58  70 N6        29.97R
MONROE         CLEAR     69  58  67 N3        29.95R
WADESBORO      SUNNY     64  60  86 CALM      29.93R
ROCKINGHAM     SUNNY     69  61  74 CALM      29.93R
RUTHERFORDTON  CLEAR     65  59  79 N3        29.99R
ASHEVILLE      CLEAR     61  56  83 N3        30.05R

$$


USA.gov is the U.S. government's official web portal to all federal, state and local government web resources and services.